SCP
2 3 4 4 3 3 3 3 4 5 6 5 3 2 2 1 1 1 2 2 2 1 1 1 1 1 1 1 1 1 1 1 1 1 1 1 1 1 1 1 1 1 1
2 3 4 3 3 3 3 4 5 6 6 5 3 2 2 2 1 1 2 2 2 2 2 2 1 1 1 1 1 1 1 1 1 1 1 1 1 1 1 1 1 1 1
2 3 3 3 3 3 3 5 6 6 6 5 3 2 2 2 2 2 2 2 2 2 2 2 1 1 1 1 1 1 1 1 1 1 1 0 1 1 1 1 1 1 1
2 2 3 4 3 3 3 5 6 6 6 5 3 2 2 2 2 2 2 2 2 2 2 2 1 1 1 1 1 1 1 1 1 1 0 0 0 1 1 1 1 1 1
2 2 3 3 3 3 3 4 5 5 5 4 3 2 2 2 2 2 2 3 3 3 2 2 1 1 1 1 1 1 1 1 1 1 0 0 0 0 1 1 1 1 1
1 1 2 3 3 3 3 3 4 5 5 4 3 2 2 2 2 3 3 4 4 4 4 3 2 2 1 1 1 1 1 1 1 0 0 0 0 0 0 1 1 1 1
1 1 1 2 3 2 3 3 4 4 4 3 3 2 3 3 3 4 4 5 5 5 5 5 4 3 2 1 1 1 1 1 1 0 0 0 0 0 1 1 1 1 1
1 1 1 2 3 2 2 3 3 3 3 3 3 3 3 3 3 3 4 4 4 5 5 5 4 3 2 2 1 1 1 1 1 1 0 0 0 1 1 1 1 1 1
1 1 1 2 2 2 2 2 2 2 3 3 2 3 2 2 2 2 2 2 2 2 3 3 3 3 3 2 2 2 1 1 1 1 0 0 1 1 1 1 1 1 1
1 1 1 2 2 1 1 1 2 2 2 2 2 2 2 2 1 1 1 1 1 1 1 2 2 3 3 3 2 2 1 1 1 1 1 1 1 1 1 1 1 1 1
1 1 1 1 1 1 1 1 1 2 2 2 1 2 2 1 1 1 1 1 1 1 1 1 1 2 2 2 2 2 1 1 1 1 1 1 1 1 1 1 1 1 1
1 1 1 1 1 1 1 1 1 2 1 1 1 1 1 1 1 1 1 1 1 1 1 1 1 1 2 1 1 1 1 1 1 1 1 1 1 1 1 1 1 1 1
1 1 1 1 1 1 1 1 2 1 1 1 1 1 1 1 1 1 1 1 1 1 1 1 1 1 1 1 1 1 1 1 1 0 0 1 1 2 2 2 1 1 1
1 2 2 1 1 1 1 2 1 1 1 1 1 1 1 1 1 1 1 0 0 0 0 1 1 1 1 1 1 1 1 1 0 0 0 1 1 2 2 2 2 1 1
2 2 2 2 1 1 1 1 1 1 1 1 1 1 1 1 1 1 1 0 0 0 0 0 0 1 1 1 1 1 1 1 1 1 1 1 1 2 2 2 2 2 1
3 3 2 2 1 1 1 1 1 1 1 1 1 1 1 1 1 1 1 1 1 0 0 0 0 1 1 1 1 1 1 0 1 1 1 1 1 2 2 2 2 1 1
3 3 3 2 2 1 1 1 1 1 1 1 1 1 1 1 1 1 1 1 0 0 0 0 0 1 1 1 1 0 0 0 1 1 1 1 1 2 2 2 2 1 1
5 4 4 3 2 2 1 1 1 1 1 1 1 1 1 1 1 1 1 1 0 0 0 0 0 1 1 0 0 0 0 0 0 0 0 0 1 1 2 2 2 2 1
5 5 4 4 3 2 2 1 1 1 1 1 1 1 2 2 1 1 1 1 1 1 1 0 0 0 0 0 0 0 0 0 0 0 0 0 1 1 1 1 1 2 2
5 5 5 4 3 2 2 2 2 2 1 1 1 2 2 2 1 1 1 1 1 1 1 1 1 1 0 0 0 0 0 0 0 0 0 0 1 1 1 1 1 1 1
5 5 5 4 3 3 3 2 2 2 2 2 2 2 2 1 1 1 1 2 2 2 2 2 1 1 1 1 1 1 1 1 1 1 1 1 1 1 1 1 1 1 2
7 7 6 5 4 3 3 3 3 2 2 2 2 2 2 2 1 1 1 2 2 3 3 2 2 1 1 1 1 2 1 1 1 1 2 1 1 1 1 1 1 2 2
10 9 8 5 4 3 2 2 3 3 3 3 3 3 3 2 2 2 2 2 2 3 3 3 2 2 2 2 2 2 2 2 2 2 2 2 2 2 2 2 2 2 2
10 9 7 5 4 3 2 2 2 3 3 3 3 3 3 3 3 3 2 2 2 2 2 3 2 2 2 2 2 3 3 2 2 2 2 2 2 2 2 3 2 1 1
7 6 5 4 3 3 2 2 2 2 2 2 2 3 3 3 4 4 4 3 2 2 2 2 2 2 2 1 1 2 2 2 2 2 2 2 2 2 2 2 1 1 1
4 3 3 3 3 2 2 2 2 3 3 2 2 2 2 3 4 4 4 4 3 2 2 1 1 1 2 2 1 1 1 1 2 2 2 2 2 2 2 2 1 1 1
Wind_Speed
4 5 10 12 14 14 14 14 14 15 14 14 13 13 13 14 14 14 14 14 13 13 12 12 11 11 11 11 11 11 11 11 11 11 11 11 10 10 9 10 10 7 11
7 7 12 13 14 14 14 14 14 14 14 13 13 13 13 12 13 14 14 13 13 12 12 11 11 10 11 10 10 10 10 10 10 10 9 9 10 9 9 10 10 7 11
9 8 11 14 14 14 14 14 14 14 14 13 13 12 12 11 13 14 13 13 12 12 11 10 10 10 10 10 9 9 9 9 9 8 8 4 6 9 9 10 11 11 11
10 8 10 15 15 14 14 14 13 14 13 13 13 12 12 12 13 13 13 12 12 11 11 9 9 10 9 9 8 8 8 8 8 7 3 3 4 9 9 10 11 11 11
9 8 11 16 15 14 14 13 13 13 13 12 12 12 12 12 11 12 12 11 11 10 10 9 8 8 8 8 8 7 7 7 7 5 3 3 3 8 10 10 10 11 11
9 9 12 16 15 14 14 13 12 12 12 11 11 11 11 11 10 11 11 10 10 9 9 8 7 7 7 7 7 6 6 6 5 3 3 4 4 8 10 10 10 10 10
9 8 11 16 15 14 13 13 12 11 11 11 11 10 10 10 10 10 10 9 9 8 8 7 7 6 6 5 5 5 6 6 3 3 3 4 5 10 10 10 10 10 10
10 9 10 15 15 14 13 13 12 11 11 10 10 9 9 9 9 9 9 8 8 7 7 7 6 6 5 4 4 5 5 6 4 3 3 3 7 9 10 10 10 10 10
10 9 7 8 10 12 13 12 11 11 10 9 9 8 8 8 8 8 7 7 7 6 6 6 6 6 5 4 4 4 5 6 3 3 4 3 8 10 10 10 10 10 10
9 8 7 6 6 6 7 11 11 10 9 9 8 8 8 7 7 6 5 5 6 6 6 6 6 6 5 4 4 5 6 5 3 3 2 4 9 11 10 10 10 10 9
9 7 6 6 5 5 5 8 8 9 8 8 6 7 5 2 2 3 4 5 5 5 6 6 5 5 4 4 5 5 4 2 3 2 2 6 10 11 10 10 10 10 9
9 8 6 6 5 5 5 4 3 3 3 3 2 2 2 1 1 2 2 4 4 4 4 4 4 3 2 1 3 3 2 3 2 3 3 8 10 11 11 10 10 9 10
9 9 7 6 5 5 3 4 2 2 2 2 2 2 2 1 1 0 0 0 0 1 1 1 1 1 1 1 1 2 2 3 2 3 4 9 9 10 10 10 10 10 10
9 8 7 7 6 5 4 4 3 2 2 2 2 2 2 1 1 1 1 0 0 0 1 1 1 1 1 2 2 2 2 2 3 2 4 9 9 10 10 10 9 9 9
9 8 7 7 6 5 4 3 4 3 3 2 2 2 3 2 2 1 1 1 1 1 1 1 1 1 1 1 2 2 3 3 3 3 3 8 9 9 10 10 10 9 9
9 8 7 7 6 5 4 4 3 3 3 2 2 2 3 3 2 2 2 1 1 1 1 2 2 1 1 1 1 2 2 2 3 3 3 5 8 9 9 10 10 9 10
9 8 7 7 6 6 5 4 4 3 3 2 2 2 3 3 3 2 2 1 1 1 1 1 1 1 1 1 1 1 1 2 3 4 3 3 4 7 9 9 9 9 9
9 8 8 8 6 5 4 4 3 3 3 2 2 2 2 3 3 2 2 1 1 1 1 2 1 1 1 1 1 1 1 1 2 3 3 3 3 3 6 9 8 8 9
10 9 8 7 7 6 5 3 3 3 2 2 2 2 2 3 3 3 2 1 1 1 1 1 1 2 1 1 1 1 1 1 1 2 3 3 4 3 3 6 8 8 9
9 9 8 7 6 5 4 3 2 2 1 1 2 2 2 2 3 3 2 1 1 1 1 1 1 1 1 1 1 0 0 1 0 1 2 2 3 3 3 3 3 4 7
8 8 7 7 6 5 3 3 3 2 1 1 1 2 2 2 2 2 2 2 2 1 1 1 1 2 1 1 2 1 2 1 0 1 1 1 2 2 3 3 2 2 2
9 8 8 7 6 5 4 3 3 3 2 1 1 1 2 2 2 3 2 2 2 1 1 2 2 1 0 1 2 2 1 3 2 1 0 1 2 2 2 3 3 3 2
10 10 9 7 6 5 5 3 3 2 1 1 1 0 1 2 2 2 3 2 2 2 2 2 2 3 2 0 1 3 2 1 1 2 1 0 1 1 1 2 3 3 3
10 9 8 7 6 5 5 5 5 4 3 2 2 1 1 1 2 2 2 2 2 2 2 2 2 2 3 1 0 0 2 3 2 0 2 1 0 1 1 2 2 2 3
8 9 8 7 6 5 5 5 5 4 3 2 2 2 1 1 1 2 2 2 2 2 2 1 2 2 2 2 1 0 0 1 1 2 1 1 1 1 1 1 2 2 2
6 7 8 8 6 5 5 5 5 5 4 4 3 2 1 0 0 1 2 2 2 2 2 2 2 2 2 2 1 1 1 1 1 2 2 1 1 1 1 1 1 2 2
Wind_Direction
161 157 136 129 123 120 118 117 116 116 116 116 117 118 120 121 125 127 128 129 131 134 136 138 136 135 134 133 134 135 137 137 142 140 143 141 138 138 139 136 132 128 129
154 154 137 129 126 123 121 119 119 118 116 116 118 119 121 126 133 133 131 132 134 135 136 137 138 138 138 137 138 139 139 139 138 140 141 143 142 141 142 137 137 136 134
144 146 136 132 130 128 126 123 122 119 118 117 117 119 121 123 129 136 135 135 137 138 137 138 141 142 141 140 140 141 142 141 137 138 135 137 141 144 143 143 142 141 139
143 142 137 135 133 131 129 126 123 122 120 119 119 120 120 120 125 131 134 136 137 139 140 142 143 145 143 142 145 148 149 150 146 144 138 143 149 147 149 149 149 148 147
140 141 142 138 136 134 132 130 128 125 123 122 122 123 124 124 126 131 135 137 139 142 145 147 148 150 148 149 153 156 160 165 161 152 143 149 158 159 160 156 155 155 154
144 146 147 143 140 137 135 133 131 128 126 125 124 126 126 127 130 134 137 141 144 146 149 151 152 152 154 159 165 167 166 168 157 150 153 161 171 169 167 164 161 160 156
148 148 147 146 144 142 140 137 134 132 130 127 127 128 129 131 132 134 139 141 145 148 153 156 157 159 164 169 174 179 175 165 153 156 165 169 177 175 171 168 161 159 160
145 145 147 148 147 146 146 143 140 137 134 131 130 129 133 137 138 140 144 147 149 151 157 161 164 164 169 177 183 184 177 168 154 152 156 160 164 166 168 165 163 164 167
133 136 142 147 147 150 151 150 147 142 139 138 137 134 135 138 140 143 148 153 158 163 166 172 172 172 176 184 191 190 179 164 150 162 163 165 168 168 171 170 170 170 174
127 135 139 141 144 151 154 154 152 148 145 143 141 141 142 144 147 150 153 158 165 170 177 183 187 186 185 191 196 192 183 166 161 163 164 177 177 176 177 175 175 176 178
132 138 141 144 148 149 148 157 156 152 149 145 143 145 144 135 134 148 165 172 177 182 189 194 196 197 201 205 200 192 184 163 158 162 174 184 184 182 181 181 182 180 182
146 150 147 147 149 148 155 144 143 143 138 134 133 139 124 123 141 156 177 181 188 189 190 194 199 204 204 203 200 190 168 158 161 173 188 186 185 183 184 187 188 185 185
155 151 150 151 145 143 140 134 131 127 129 135 137 140 134 121 130 103 103 184 225 164 165 189 195 199 174 180 184 172 169 165 170 186 194 187 182 181 185 188 189 190 189
149 150 151 150 142 143 136 139 138 136 140 145 147 148 139 129 133 128 116 111 96 84 112 139 154 172 169 180 173 168 172 168 175 186 193 188 185 184 187 188 190 191 192
147 148 153 149 146 145 138 148 145 147 149 156 154 154 147 142 150 145 144 141 136 123 128 139 157 161 161 154 158 157 162 170 174 182 186 184 185 189 189 190 194 194 194
149 148 148 146 150 142 142 145 148 150 148 149 155 163 156 149 154 156 151 140 147 157 152 153 169 159 161 150 150 163 170 183 180 179 189 194 193 193 195 197 198 196 196
151 147 145 149 147 146 147 149 147 148 150 156 159 156 150 150 158 156 138 132 168 157 150 140 124 106 131 140 156 191 181 186 179 173 183 186 198 201 198 198 197 198 198
148 147 151 150 149 151 147 143 135 141 149 157 156 148 146 150 152 144 135 154 167 140 145 147 135 123 115 139 189 234 212 180 190 178 179 186 195 201 199 194 192 193 197
154 153 154 148 152 151 144 138 139 138 144 155 148 146 155 154 152 145 152 173 147 130 142 156 135 141 142 152 200 209 210 195 192 180 175 183 190 191 189 192 191 194 198
152 154 152 148 153 146 134 125 115 109 120 137 145 152 153 149 144 141 141 146 131 117 106 131 146 146 156 173 180 165 238 196 193 187 194 180 178 179 180 187 189 196 195
148 149 151 150 159 149 142 147 146 150 153 154 156 153 148 143 139 138 137 133 130 134 155 157 142 127 116 105 86 24 350 346 313 214 194 164 160 161 148 162 171 179 195
158 157 154 158 164 164 164 161 155 150 152 163 149 135 152 147 147 142 136 141 145 139 118 121 129 124 133 102 126 110 13 353 341 352 61 147 157 148 159 169 159 165 177
164 164 162 163 160 165 157 135 125 96 73 72 87 144 187 160 153 150 147 145 146 148 151 151 147 145 157 214 122 138 142 218 305 340 12 153 156 148 165 160 167 171 175
173 166 160 160 159 157 152 148 151 153 164 190 175 172 173 157 157 147 143 147 146 134 142 162 151 147 146 165 295 168 158 160 150 312 337 341 145 159 178 179 174 173 179
171 167 164 158 159 159 156 157 155 157 165 156 133 143 164 174 154 138 136 138 143 137 139 124 113 123 133 146 159 175 94 80 115 142 229 303 339 293 204 185 164 171 184
164 166 161 159 165 166 160 157 155 154 154 145 153 161 178 186 164 135 128 131 139 131 124 135 120 125 147 143 145 127 135 156 182 158 185 229 247 280 277 195 172 178 183